TimeEST,TemperatureF,Dew PointF,Humidity,Sea Level PressureIn,VisibilityMPH,Wind Direction,Wind SpeedMPH,Gust SpeedMPH,PrecipitationIn,Events,Conditions,WindDirDegrees,DateUTC
12:15 AM,57.2,48.2,72,30.25,10.0,WSW,4.6,-,N/A,,Overcast,250,2011-11-21 05:15:00
12:35 AM,55.4,50.0,82,30.24,10.0,West,4.6,-,N/A,,Overcast,260,2011-11-21 05:35:00
12:55 AM,57.2,50.0,77,30.24,10.0,WNW,13.8,17.3,N/A,Rain,Light Rain,290,2011-11-21 05:55:00
1:15 AM,57.2,50.0,77,30.23,10.0,WNW,11.5,17.3,N/A,,Overcast,290,2011-11-21 06:15:00
1:35 AM,57.2,51.8,82,30.23,10.0,West,19.6,25.3,N/A,,Overcast,280,2011-11-21 06:35:00
2:15 AM,55.4,51.8,88,30.23,10.0,West,18.4,31.1,N/A,,Overcast,280,2011-11-21 07:15:00
3:35 AM,57.2,51.8,82,30.22,10.0,WNW,19.6,27.6,N/A,,Overcast,300,2011-11-21 08:35:00
3:55 AM,57.2,51.8,82,30.23,10.0,WNW,18.4,26.5,N/A,,Overcast,300,2011-11-21 08:55:00
4:15 AM,57.2,51.8,82,30.22,10.0,WNW,17.3,21.9,N/A,,Mostly Cloudy,290,2011-11-21 09:15:00
4:35 AM,57.2,51.8,82,30.22,10.0,WNW,19.6,-,N/A,,Mostly Cloudy,290,2011-11-21 09:35:00
4:55 AM,57.2,51.8,82,30.23,10.0,WNW,16.1,24.2,N/A,,Mostly Cloudy,300,2011-11-21 09:55:00
5:15 AM,57.2,51.8,82,30.24,10.0,WNW,16.1,23.0,N/A,,Light Drizzle,290,2011-11-21 10:15:00
5:35 AM,57.2,51.8,82,30.25,10.0,WNW,13.8,24.2,N/A,,Overcast,290,2011-11-21 10:35:00
5:55 AM,57.2,51.8,82,30.25,10.0,WNW,13.8,25.3,N/A,,Overcast,290,2011-11-21 10:55:00
6:15 AM,57.2,51.8,82,30.25,10.0,WNW,13.8,28.8,N/A,,Mostly Cloudy,300,2011-11-21 11:15:00
6:35 AM,57.2,51.8,82,30.26,10.0,WNW,16.1,26.5,N/A,,Mostly Cloudy,290,2011-11-21 11:35:00
6:55 AM,57.2,51.8,82,30.27,10.0,WNW,17.3,24.2,N/A,,Light Drizzle,290,2011-11-21 11:55:00
7:15 AM,57.2,51.8,82,30.28,10.0,WNW,13.8,19.6,N/A,,Overcast,300,2011-11-21 12:15:00
7:35 AM,57.2,51.8,82,30.27,10.0,WNW,11.5,17.3,N/A,,Light Drizzle,300,2011-11-21 12:35:00
7:55 AM,57.2,51.8,82,30.29,10.0,WNW,11.5,17.3,N/A,,Overcast,290,2011-11-21 12:55:00
8:15 AM,57.2,51.8,82,30.29,10.0,WNW,13.8,17.3,N/A,,Overcast,300,2011-11-21 13:15:00
8:35 AM,59.0,51.8,77,30.30,10.0,WNW,9.2,-,N/A,,Overcast,300,2011-11-21 13:35:00
9:35 AM,59.0,51.8,77,30.31,10.0,WNW,12.7,20.7,N/A,,Overcast,290,2011-11-21 14:35:00
9:55 AM,59.0,51.8,77,30.31,10.0,WNW,13.8,21.9,N/A,,Overcast,300,2011-11-21 14:55:00
10:15 AM,59.0,51.8,77,30.30,10.0,WNW,11.5,-,N/A,,Overcast,290,2011-11-21 15:15:00
10:35 AM,59.0,51.8,77,30.29,10.0,WNW,11.5,-,N/A,,Overcast,290,2011-11-21 15:35:00
10:55 AM,59.0,51.8,77,30.29,10.0,West,4.6,-,N/A,,Scattered Clouds,280,2011-11-21 15:55:00
11:15 AM,60.8,51.8,72,30.30,10.0,West,9.2,-,N/A,,Scattered Clouds,260,2011-11-21 16:15:00
11:35 AM,60.8,51.8,72,30.29,10.0,West,11.5,17.3,N/A,,Overcast,280,2011-11-21 16:35:00
11:55 AM,60.8,51.8,72,30.29,10.0,WNW,5.8,-,N/A,,Overcast,290,2011-11-21 16:55:00
12:15 PM,60.8,50.0,68,30.27,10.0,WNW,4.6,-,N/A,,Scattered Clouds,290,2011-11-21 17:15:00
12:35 PM,60.8,50.0,68,30.26,10.0,NNW,8.1,-,N/A,,Scattered Clouds,330,2011-11-21 17:35:00
12:55 PM,60.8,50.0,68,30.27,10.0,WNW,8.1,-,N/A,,Scattered Clouds,300,2011-11-21 17:55:00
1:15 PM,60.8,50.0,68,30.26,10.0,WNW,4.6,-,N/A,,Mostly Cloudy,290,2011-11-21 18:15:00
1:35 PM,60.8,50.0,68,30.24,10.0,NW,4.6,-,N/A,,Overcast,320,2011-11-21 18:35:00
1:55 PM,60.8,51.8,72,30.24,10.0,Calm,Calm,-,N/A,,Overcast,0,2011-11-21 18:55:00
2:15 PM,60.8,50.0,68,30.25,10.0,WNW,6.9,-,N/A,,Overcast,300,2011-11-21 19:15:00
2:35 PM,60.8,50.0,68,30.25,10.0,NW,9.2,-,N/A,,Overcast,320,2011-11-21 19:35:00
2:55 PM,59.0,50.0,72,30.25,10.0,NW,9.2,-,N/A,,Overcast,310,2011-11-21 19:55:00
3:15 PM,59.0,50.0,72,30.26,10.0,NNW,5.8,-,N/A,,Overcast,330,2011-11-21 20:15:00
3:35 PM,59.0,48.2,67,30.26,10.0,WNW,9.2,18.4,N/A,,Overcast,300,2011-11-21 20:35:00
3:55 PM,57.2,50.0,77,30.27,10.0,WNW,13.8,24.2,N/A,Rain,Rain,290,2011-11-21 20:55:00
4:35 PM,55.4,50.0,82,30.26,10.0,WNW,9.2,17.3,N/A,Rain,Light Rain,290,2011-11-21 21:35:00
4:55 PM,55.4,48.2,77,30.25,10.0,West,3.5,-,N/A,,Drizzle,270,2011-11-21 21:55:00
5:15 PM,55.4,48.2,77,30.25,10.0,West,5.8,-,N/A,Rain,Light Rain,280,2011-11-21 22:15:00
5:35 PM,53.6,48.2,82,30.25,10.0,Calm,Calm,-,N/A,,Scattered Clouds,0,2011-11-21 22:35:00
5:55 PM,53.6,50.0,88,30.25,10.0,Calm,Calm,-,N/A,,Mostly Cloudy,0,2011-11-21 22:55:00
6:15 PM,53.6,50.0,88,30.26,10.0,Calm,Calm,-,N/A,,Overcast,0,2011-11-21 23:15:00
6:35 PM,53.6,50.0,88,30.26,10.0,Calm,Calm,-,N/A,,Scattered Clouds,0,2011-11-21 23:35:00
6:55 PM,53.6,48.2,82,30.26,10.0,Calm,Calm,-,N/A,,Scattered Clouds,0,2011-11-21 23:55:00
7:15 PM,55.4,48.2,77,30.25,10.0,Calm,Calm,-,N/A,,Mostly Cloudy,0,2011-11-22 00:15:00
7:35 PM,53.6,48.2,82,30.25,10.0,Calm,Calm,-,N/A,,Scattered Clouds,0,2011-11-22 00:35:00
7:55 PM,53.6,48.2,82,30.24,10.0,Calm,Calm,-,N/A,,Scattered Clouds,0,2011-11-22 00:55:00
8:15 PM,53.6,46.4,77,30.24,10.0,Calm,Calm,-,N/A,,Scattered Clouds,0,2011-11-22 01:15:00
8:35 PM,53.6,46.4,77,30.23,10.0,Calm,Calm,-,N/A,,Scattered Clouds,0,2011-11-22 01:35:00
8:55 PM,51.8,48.2,88,30.23,10.0,Calm,Calm,-,N/A,,Mostly Cloudy,0,2011-11-22 01:55:00
9:15 PM,53.6,46.4,77,30.22,10.0,Calm,Calm,-,N/A,,Mostly Cloudy,0,2011-11-22 02:15:00
9:35 PM,53.6,46.4,77,30.22,10.0,Calm,Calm,-,N/A,,Mostly Cloudy,0,2011-11-22 02:35:00
9:55 PM,53.6,46.4,77,30.23,10.0,Calm,Calm,-,N/A,,Overcast,0,2011-11-22 02:55:00
10:15 PM,53.6,46.4,77,30.24,10.0,Calm,Calm,-,N/A,,Overcast,0,2011-11-22 03:15:00
10:35 PM,53.6,46.4,77,30.24,10.0,Calm,Calm,-,N/A,,Overcast,0,2011-11-22 03:35:00
10:55 PM,53.6,48.2,82,30.24,10.0,Calm,Calm,-,N/A,,Overcast,0,2011-11-22 03:55:00
11:15 PM,51.8,46.4,82,30.23,10.0,Calm,Calm,-,N/A,,Overcast,0,2011-11-22 04:15:00
11:35 PM,51.8,48.2,88,30.24,10.0,SW,3.5,-,N/A,,Overcast,230,2011-11-22 04:35:00
11:55 PM,53.6,48.2,82,30.24,10.0,Calm,Calm,-,N/A,,Overcast,0,2011-11-22 04:55:00